GFSFLT1_500_rhum_000.txt.gz
RH
26 28 28 28 30 28 27 27 26 28 29 30 29 27 25 22 20 19 20 20 20 22 24 23 19 18 20 22 21 18 19 19
38 39 37 36 35 36 38 38 39 41 42 41 38 34 31 29 23 21 19 17 18 23 24 25 24 20 22 23 22 20 19 19
43 44 45 45 41 37 33 33 33 34 36 39 38 37 36 31 32 34 36 38 40 37 36 33 29 26 21 22 20 23 24 21
40 42 42 39 36 33 34 35 39 44 46 48 49 48 50 49 53 56 52 58 56 58 54 47 42 40 35 28 19 21 22 23
38 35 32 32 32 34 39 44 46 52 62 66 69 67 72 76 78 72 74 73 67 63 68 67 55 49 48 49 48 35 26 26
32 34 34 32 32 33 34 35 39 41 48 57 64 73 79 80 86 88 88 91 83 80 78 89 80 72 70 72 74 67 58 50
29 30 31 32 33 34 36 39 40 44 50 58 72 81 86 97 100 99 98 96 86 84 88 89 94 93 87 80 73 68 68 66
25 28 33 36 40 44 49 53 56 57 62 70 76 90 99 100 100 100 100 98 92 95 99 100 96 86 78 67 58 52 57 67
36 38 41 40 43 48 52 62 69 71 78 79 83 99 100 100 100 100 100 100 98 97 98 96 85 72 66 65 61 56 57 54
50 49 50 48 54 64 70 73 84 97 100 100 100 100 100 99 98 100 95 87 86 89 89 87 78 75 74 70 65 57 48 41
48 50 52 54 65 75 81 91 99 100 100 100 100 100 100 100 100 100 94 84 85 86 83 77 80 76 65 56 48 39 31 24
56 57 56 65 77 85 87 96 100 100 97 100 100 100 100 100 100 100 99 92 87 81 85 85 74 63 54 41 32 23 16 14
53 55 65 76 82 86 92 98 99 100 100 100 100 100 100 100 100 100 97 89 86 84 85 72 61 47 38 29 23 18 10 7
59 62 74 79 80 88 97 99 99 100 100 100 100 100 100 100 100 100 96 88 87 81 66 52 44 38 30 17 10 8 7 8
76 82 84 80 75 91 97 98 96 98 100 100 100 100 100 98 100 94 93 91 74 62 59 50 38 18 10 7 8 10 11 17
92 88 86 79 82 99 98 96 94 96 100 100 100 100 100 100 96 99 88 69 57 48 41 20 10 7 9 12 14 32 45 45
95 91 81 89 100 100 96 94 91 97 98 96 100 100 94 98 100 79 58 39 37 25 11 7 7 13 13 28 59 58 64 69
94 82 89 100 100 96 99 93 90 93 91 99 100 92 97 99 72 44 26 26 15 9 6 12 13 24 57 74 91 72 69 69
86 95 100 100 97 99 95 98 96 96 100 100 95 97 98 66 31 22 20 11 8 7 14 17 33 80 70 76 81 74 70 63

GFSFLT1_500_rhum_003.txt.gz
RH
30 33 33 32 32 30 28 29 29 30 34 36 35 33 36 36 32 30 30 29 30 31 32 38 43 46 43 38 37 32 30 25
27 26 22 26 20 21 18 21 22 26 24 29 28 33 35 36 37 37 41 41 42 42 45 44 41 43 46 54 51 45 41 35
22 21 20 19 19 19 20 22 18 20 20 22 24 24 27 31 32 30 40 41 53 63 57 52 48 48 50 48 47 53 53 47
16 16 16 19 21 21 23 22 25 26 30 31 33 35 38 38 39 40 40 49 61 68 81 87 77 67 66 61 60 56 51 52
22 23 24 26 27 27 28 29 30 32 38 47 49 58 74 82 75 68 70 70 62 63 62 66 72 84 83 67 60 65 66 64
37 33 30 29 29 31 35 37 39 42 46 58 66 75 96 96 97 94 96 96 94 90 92 90 84 87 85 87 78 79 96 83
44 43 47 50 47 46 47 46 50 50 61 71 78 82 94 100 98 98 100 100 100 100 100 100 100 98 100 100 99 100 100 100
42 41 45 48 47 48 51 54 54 60 60 71 81 90 100 100 97 100 100 100 100 100 100 100 100 100 99 100 100 99 100 100
44 46 49 53 55 56 60 58 59 69 74 76 89 94 95 91 94 100 100 100 100 100 100 100 100 100 99 99 97 88 84 80
50 51 54 58 58 59 63 62 72 79 80 82 88 89 92 100 98 100 100 98 98 98 99 99 99 100 100 97 92 86 84 78
58 56 60 63 75 81 73 78 89 93 88 86 93 90 99 97 97 99 100 100 100 100 100 98 100 99 94 89 82 78 70 60
61 65 68 73 76 81 88 98 96 89 95 95 90 95 92 89 100 100 100 100 100 99 99 98 91 85 82 74 63 54 46 35
70 74 76 79 81 94 96 93 92 100 98 87 86 89 83 97 100 100 100 100 100 99 94 86 86 74 62 52 40 20 17 18
78 83 83 90 91 84 91 89 97 94 89 81 86 83 88 100 100 100 100 98 96 89 82 75 61 51 32 19 18 17 14 11
85 84 97 98 94 85 90 88 90 89 81 83 85 90 99 100 100 100 97 93 85 78 70 56 36 16 18 19 14 11 10 8
84 91 82 88 86 92 86 91 84 76 76 87 92 98 100 100 97 99 91 82 77 68 41 15 18 20 16 11 9 7 9 10
88 86 81 78 90 95 93 84 72 64 87 98 100 100 100 98 98 89 84 79 57 13 13 18 14 10 8 7 11 13 30 41
81 85 86 86 82 85 85 82 61 83 98 100 100 100 100 100 98 87 76 26 7 19 15 11 8 7 10 15 36 52 76 79
77 78 77 80 79 75 76 68 86 96 100 100 100 100 100 99 86 55 8 11 15 11 9 8 10 13 19 43 65 59 62 69

GFSFLT1_500_rhum_006.txt.gz
RH
11 21 21 18 14 15 14 15 16 18 18 20 20 22 24 26 27 26 33 36 38 40 44 50 51 48 45 45 50 52 55 55
11 10 12 12 13 14 15 15 15 16 18 20 22 25 27 29 32 29 33 33 36 41 50 49 55 62 66 61 57 57 58 58
14 14 15 17 18 20 21 23 23 23 25 23 26 28 30 32 38 43 44 53 59 70 75 67 67 71 77 78 74 68 69 70
20 26 31 33 38 41 44 44 43 41 40 42 39 40 47 48 51 56 54 56 64 83 84 84 80 79 83 87 84 76 70 79
36 38 38 40 42 46 52 56 53 50 48 52 64 58 55 63 73 75 77 70 74 73 74 71 64 69 80 87 88 84 75 75
42 45 45 49 52 54 58 60 60 60 60 57 58 77 73 84 94 93 92 93 90 87 82 79 87 91 90 95 100 100 95 80
53 56 57 61 54 54 61 65 66 67 68 69 68 68 83 88 92 94 94 92 98 100 98 100 100 100 100 98 98 98 100 100
40 37 41 54 53 58 61 61 64 70 76 81 77 80 84 92 93 88 83 79 88 94 98 95 98 100 99 100 98 98 97 98
40 41 44 46 49 60 69 65 65 69 67 71 79 84 87 92 92 83 78 92 98 100 100 100 100 100 98 100 100 99 99 99
46 45 48 47 58 63 68 69 74 80 92 92 92 94 92 89 86 76 82 88 99 100 100 100 100 100 100 100 100 100 100 100
53 53 58 61 77 76 72 73 84 96 100 100 100 99 93 80 70 73 81 94 100 100 100 100 100 100 100 100 99 95 87 83
61 65 68 68 79 78 76 75 84 88 94 95 99 97 80 60 70 85 100 100 100 100 100 100 100 100 100 97 85 81 75 64
70 81 84 76 77 82 84 75 74 79 83 94 87 83 58 53 70 92 100 100 100 100 100 100 100 100 87 82 78 70 60 49
77 84 76 76 82 87 83 79 75 78 84 77 69 56 53 62 76 90 100 100 100 100 100 100 92 83 76 70 56 28 4 2
66 86 76 84 80 80 82 84 82 76 67 64 52 49 64 73 86 100 100 100 100 100 98 92 84 74 44 8 3 6 9 9
76 81 89 86 77 89 99 98 81 68 66 54 46 63 73 91 100 100 100 100 93 94 92 76 33 7 8 12 11 10 9 7
75 85 82 91 96 98 98 92 75 67 54 48 67 75 84 93 100 100 94 97 96 80 29 9 12 14 12 10 9 8 10 14
68 68 79 83 88 93 95 81 63 54 51 66 84 97 100 100 100 100 100 94 47 12 14 16 14 11 10 9 13 14 20 44
77 79 85 96 100 100 80 60 58 51 67 90 100 100 100 100 100 100 81 22 16 18 16 12 10 11 13 16 21 32 42 54

GFSFLT1_500_rhum_009.txt.gz
RH
7 8 10 12 13 16 19 22 28 34 38 39 34 31 28 27 27 27 35 38 39 38 42 52 55 53 53 63 68 69 70 75
16 17 18 23 30 33 34 35 37 41 45 49 48 41 40 40 42 37 34 42 51 53 52 54 58 64 70 81 77 70 70 74
33 30 33 38 38 40 46 47 53 60 61 57 56 53 51 50 50 52 52 52 49 48 64 64 66 69 76 79 76 74 68 65
49 48 47 44 47 57 58 57 58 59 59 62 62 59 58 61 59 61 62 57 57 56 58 64 71 74 77 77 79 77 74 76
37 44 46 45 49 56 67 69 67 64 58 54 59 74 74 72 81 91 81 76 80 81 75 68 70 71 67 68 70 80 82 85
50 56 50 54 61 75 73 70 78 73 73 73 72 74 80 86 96 97 97 89 83 75 72 68 64 59 59 64 72 87 100 100
46 43 43 45 42 47 59 60 63 68 75 77 77 74 78 85 97 96 96 90 88 81 70 60 61 70 91 98 99 98 100 95
53 46 39 40 46 50 53 58 59 64 63 62 67 68 67 72 80 87 97 96 84 68 77 90 100 100 100 100 100 100 97 100
54 50 53 56 57 60 60 73 58 72 86 82 79 76 75 72 74 78 77 74 55 62 87 100 100 100 100 100 99 100 100 100
58 64 69 67 63 65 74 74 65 75 81 85 84 84 91 89 82 73 68 48 44 56 95 100 100 100 100 100 100 100 99 98
82 88 78 68 76 80 67 69 74 76 77 79 84 88 91 85 75 66 48 48 65 83 100 100 100 100 100 100 100 100 98 96
90 83 70 71 66 66 72 70 74 70 68 74 89 96 93 78 65 51 48 75 90 100 100 100 100 100 100 100 100 98 97 97
76 78 77 69 71 64 69 74 80 70 70 79 86 91 76 61 58 50 71 93 100 100 100 100 100 100 100 100 100 100 97 88
80 74 70 65 62 67 68 77 84 79 81 82 81 70 66 68 48 45 77 85 100 100 100 100 100 100 100 100 96 77 52 22
70 71 69 65 67 66 74 83 95 97 86 86 75 71 70 42 46 72 88 98 100 100 100 100 99 97 91 61 24 10 10 12
66 63 60 56 54 60 78 94 100 100 94 80 76 62 38 34 52 83 84 84 91 94 90 95 94 43 16 14 15 14 13 11
72 66 57 50 58 71 83 88 87 90 84 77 49 37 41 69 84 82 89 100 97 98 98 47 20 19 17 15 13 10 9 9
79 67 54 51 48 54 74 83 88 82 73 41 37 55 90 100 100 100 100 100 100 79 27 23 19 17 14 11 10 10 17 29
75 66 59 51 65 76 90 93 79 62 34 32 47 90 100 100 100 100 100 100 60 27 24 19 15 13 11 10 13 30 42 41

GFSFLT1_500_rhum_012.txt.gz
RH
14 13 15 20 23 25 30 34 35 38 45 47 52 54 52 51 51 52 51 51 50 49 48 51 55 56 61 62 64 66 69 69
21 24 28 34 38 40 44 49 52 54 55 57 58 58 58 56 51 49 54 60 64 63 61 62 64 66 68 72 75 79 79 72
37 39 50 51 53 62 70 77 80 82 76 72 67 63 64 62 62 60 58 59 65 71 77 74 73 75 79 82 81 78 76 74
44 40 48 59 60 62 69 73 82 86 69 62 61 64 64 66 65 65 63 60 65 70 71 72 65 56 60 67 71 68 66 64
46 41 46 48 48 55 60 64 67 62 58 53 54 55 59 67 66 67 69 69 68 66 60 56 54 54 56 57 56 47 44 58
48 46 43 48 56 60 64 64 62 55 50 51 51 52 54 56 69 71 72 68 68 70 67 66 65 65 58 50 42 35 34 54
54 61 62 63 70 75 74 67 60 57 56 59 61 69 69 70 77 80 82 77 77 82 80 75 67 58 47 38 34 35 40 57
60 71 70 76 78 75 74 69 64 65 70 73 85 85 79 76 77 77 78 68 64 71 74 68 55 50 45 53 59 75 87 76
68 76 79 90 90 75 69 72 74 79 78 75 76 79 81 87 84 80 78 80 76 72 66 62 56 64 100 99 100 98 93 94
83 90 92 87 74 74 70 71 70 70 65 60 61 73 82 86 87 85 88 85 71 67 66 57 76 100 100 100 100 100 100 100
88 83 80 79 71 67 69 71 64 59 54 54 52 54 68 81 80 78 81 78 76 61 48 64 99 100 100 100 100 100 100 100
85 72 75 72 68 68 64 59 53 49 46 43 42 46 51 63 82 89 82 70 49 36 51 85 100 100 100 100 100 100 100 100
64 70 80 77 70 68 65 61 56 49 44 40 35 34 47 76 81 72 60 38 30 36 66 100 100 100 100 100 100 100 98 99
64 75 78 76 78 72 66 63 54 46 41 42 46 64 76 73 65 48 31 30 43 76 100 100 100 100 100 100 100 99 99 93
56 62 66 71 82 80 72 60 58 56 54 62 72 68 68 65 44 25 21 48 84 100 100 100 96 93 91 89 84 53 20 15
79 71 86 99 86 80 63 62 50 49 66 64 66 64 63 40 15 14 47 90 100 90 75 77 84 91 91 49 20 14 12 13
100 96 86 75 77 70 57 52 40 48 58 63 63 64 31 15 26 69 100 96 91 94 100 100 100 72 28 18 12 13 13 11
85 58 49 56 54 56 59 35 33 67 66 49 47 36 24 68 100 100 100 100 100 100 100 96 48 27 17 13 14 12 10 10
48 46 43 37 38 33 35 34 66 60 54 42 33 20 57 98 100 100 100 100 100 100 85 41 25 17 13 14 12 10 12 30

GFSFLT1_500_rhum_015.txt.gz
RH
20 20 23 25 33 43 48 58 60 58 58 59 60 57 58 60 59 55 51 51 52 54 54 52 51 50 55 60 65 69 76 79
28 26 30 34 53 62 64 62 60 64 68 70 66 60 58 60 57 53 57 62 63 59 57 55 54 56 60 66 69 72 76 79
31 36 40 44 60 59 58 59 66 68 65 61 62 62 62 58 56 51 47 46 51 60 67 70 69 68 72 77 84 87 87 86
43 47 52 65 67 61 60 65 67 62 56 55 57 62 61 58 58 53 50 48 52 58 65 70 71 68 65 62 60 60 66 70
40 48 54 55 54 59 66 75 70 67 63 58 51 56 54 50 47 50 56 60 59 58 59 61 61 59 56 54 53 51 54 62
41 39 41 52 58 73 84 82 72 64 66 65 66 62 60 55 57 57 54 53 53 53 58 61 60 62 61 62 62 60 60 62
50 58 67 71 68 67 65 67 67 71 71 71 64 62 57 53 50 48 49 51 54 57 66 76 79 83 79 72 68 65 65 63
49 56 62 60 65 70 71 71 70 65 60 58 56 52 51 48 47 46 46 47 48 52 67 74 80 84 80 76 74 69 64 57
54 57 59 69 72 68 70 67 59 56 56 56 54 55 54 52 50 48 47 44 40 42 60 70 72 69 63 56 62 45 78 100
61 64 69 66 70 70 58 57 60 53 50 52 56 59 61 58 52 47 41 40 43 52 66 70 62 47 36 44 67 72 87 100
66 69 73 80 70 50 49 57 61 52 53 68 74 70 66 54 45 44 44 47 50 54 59 58 44 28 36 83 100 100 100 100
63 66 71 72 56 49 46 49 57 69 68 67 80 70 47 44 47 53 59 56 51 46 51 43 17 18 47 93 100 100 100 100
57 50 48 46 47 49 47 56 65 69 72 76 78 74 53 34 34 36 40 30 37 53 25 17 19 45 91 100 100 100 100 100
32 35 38 41 44 65 83 100 100 99 75 65 52 32 48 25 30 31 30 37 33 18 20 31 75 99 100 100 99 94 95 98
40 47 49 51 53 62 90 96 79 54 52 54 64 100 96 73 94 81 16 26 26 43 64 92 100 100 100 95 87 82 83 85
54 51 48 46 48 53 50 35 22 16 26 78 100 100 75 67 88 60 12 28 68 87 97 92 83 77 77 80 85 85 66 28
54 53 52 56 48 24 21 28 24 22 26 61 100 68 38 63 53 14 67 100 100 100 100 100 100 100 100 98 74 30 18 14
60 59 52 14 7 9 28 73 92 45 20 33 40 30 45 48 26 98 100 100 100 100 100 100 100 100 86 45 24 15 13 13
39 17 9 10 30 40 38 36 41 33 48 80 62 20 10 47 99 100 100 100 100 100 100 100 100 74 37 22 14 14 14 12

GFSFLT1_500_rhum_018.txt.gz
RH
23 23 24 25 29 37 42 48 50 52 52 50 50 55 57 60 63 64 62 61 59 54 50 48 47 46 45 46 51 54 57 57
32 29 29 34 40 48 57 60 60 52 51 56 53 60 64 65 64 63 64 63 62 59 58 56 53 52 52 54 57 60 64 67
31 32 40 47 48 66 75 69 60 58 59 62 54 60 62 63 61 64 63 61 57 52 50 50 52 50 49 50 56 66 74 79
24 35 41 52 62 66 74 74 71 60 52 50 59 58 55 58 58 55 54 49 45 42 41 42 43 45 45 51 55 57 65 70
34 44 50 59 57 56 63 62 59 58 64 81 74 65 63 56 51 50 50 52 50 49 48 46 46 46 45 46 46 47 54 62
41 44 51 53 56 61 60 65 70 82 87 74 67 61 61 54 57 57 57 55 55 54 53 51 47 44 40 37 33 32 32 42
44 51 59 62 61 61 65 61 59 66 66 57 51 55 58 54 51 48 49 53 56 61 58 52 44 42 43 44 45 46 52 59
53 51 47 51 54 52 46 42 52 57 52 40 35 39 53 61 60 53 56 55 49 48 44 38 29 30 40 47 52 54 60 62
50 51 53 53 48 43 41 36 37 48 50 46 45 50 61 60 58 58 57 63 60 48 32 9 7 11 20 35 52 59 58 42
49 49 46 43 36 30 27 26 32 45 57 63 68 68 58 77 100 95 74 69 65 39 44 28 10 7 12 17 27 53 34 30
34 35 32 28 28 31 36 37 43 51 62 53 53 64 90 100 100 86 66 100 96 87 88 81 34 45 27 22 39 26 20 36
34 36 36 40 42 46 49 49 52 55 54 47 45 50 54 58 44 29 25 26 35 72 76 28 36 53 20 26 25 35 41 97
51 52 48 45 45 47 51 52 50 48 48 54 56 74 63 37 18 56 58 12 12 18 11 19 12 21 37 65 80 100 100 100
46 44 45 46 47 48 48 51 52 58 53 19 11 16 23 36 43 60 23 19 21 5 11 21 75 100 100 100 100 100 100 100
41 44 46 44 46 46 40 38 30 17 13 14 24 46 38 32 30 14 10 25 22 14 56 86 97 98 96 92 90 87 83 83
48 46 44 43 34 21 19 15 9 8 20 63 100 70 23 14 10 8 11 18 41 80 90 96 92 92 94 97 98 90 87 91
48 46 52 51 32 17 14 11 15 22 18 22 37 27 12 9 10 14 33 90 100 100 100 100 100 100 97 100 100 99 93 76
50 46 34 20 18 16 15 22 34 27 28 41 25 15 11 12 14 46 93 100 100 100 100 100 100 100 100 100 98 85 64 34
60 56 41 22 23 31 48 67 48 46 20 16 15 14 14 29 80 99 99 100 100 100 100 100 100 100 99 95 80 54 28 20

GFSFLT1_500_rhum_021.txt.gz
RH
26 27 28 28 30 34 33 35 32 30 30 34 38 42 48 55 64 64 56 53 50 48 47 44 40 40 44 45 46 47 48 49
30 34 36 35 34 36 38 39 39 36 40 48 56 62 66 70 64 60 53 49 43 37 33 35 37 38 42 43 42 44 46 49
34 36 36 36 41 44 50 52 51 53 63 68 67 61 59 58 50 47 46 45 44 40 39 41 45 46 47 48 48 45 46 47
35 34 34 43 51 60 66 71 78 77 68 58 55 50 42 38 43 48 48 49 54 54 54 52 51 51 50 52 54 55 51 49
35 37 50 56 58 61 57 54 55 58 55 51 50 46 46 55 53 43 42 56 57 61 65 66 62 54 44 51 53 50 44 37
41 45 45 47 47 48 51 56 55 48 46 44 41 41 48 52 55 52 48 52 58 58 54 50 47 44 41 43 44 40 26 10
42 40 43 47 48 48 50 46 45 42 35 34 34 31 33 41 52 61 67 77 71 74 70 59 66 80 59 52 57 42 27 38
41 47 49 50 50 46 43 43 37 34 34 35 36 37 38 38 41 48 68 61 48 52 57 49 45 34 29 15 13 12 27 37
52 49 44 39 36 33 36 30 32 34 35 37 39 44 49 58 64 65 63 59 53 48 42 36 23 16 13 11 6 5 5 10
45 39 34 32 30 29 34 39 42 44 48 52 56 59 65 68 65 64 62 58 29 21 25 25 14 10 9 9 8 7 6 7
34 34 33 35 39 45 51 52 54 56 56 55 57 63 64 62 63 62 42 24 26 26 42 29 12 10 9 8 9 7 13 25
43 46 48 50 53 55 52 51 48 49 53 52 44 44 51 37 13 10 9 10 11 14 17 12 9 10 25 32 21 42 64 95
53 52 52 51 50 48 46 50 56 58 51 40 31 24 23 17 10 11 15 16 14 10 8 9 16 42 77 99 100 100 100 100
49 47 45 43 48 53 51 50 46 41 27 19 21 20 16 28 54 36 18 10 9 10 11 22 51 89 100 100 100 100 100 100
42 39 37 35 38 45 51 53 51 45 30 20 15 17 54 76 65 14 10 10 12 16 31 60 98 100 100 100 96 94 92 90
35 33 35 37 41 41 38 34 29 25 28 33 36 40 31 28 14 12 12 15 26 69 97 100 100 100 100 100 100 100 100 100
34 36 38 49 53 44 33 26 25 30 33 58 69 48 48 20 12 14 18 51 82 92 100 100 100 100 100 100 99 94 94 99
42 47 62 61 62 48 30 26 28 36 52 53 38 41 41 14 18 35 82 96 93 95 98 97 96 94 92 92 93 94 93 93
55 59 72 98 88 42 24 20 27 58 48 36 22 15 14 23 59 84 89 91 93 95 96 92 88 85 79 76 72 70 69 63

GFSFLT1_500_rhum_024.txt.gz
RH
28 32 36 39 37 33 29 30 34 39 46 50 48 49 52 54 55 57 56 50 44 36 30 28 25 26 29 27 28 31 40 44
35 40 40 40 38 38 37 42 47 54 55 52 50 54 60 56 57 54 46 39 37 31 28 26 26 23 29 37 38 34 38 46
36 38 41 41 42 44 46 50 52 57 59 58 62 66 63 62 50 41 34 32 32 34 34 33 33 32 38 55 60 52 46 53
34 39 44 45 46 48 50 57 59 65 67 60 55 52 47 33 32 33 35 32 40 46 51 58 61 57 56 56 58 59 51 46
37 40 46 49 50 52 60 60 59 56 53 48 42 34 30 33 35 37 41 40 45 46 47 55 61 74 82 67 50 52 62 52
37 40 42 43 46 50 51 50 47 39 31 31 32 37 42 38 42 44 62 63 59 62 65 58 52 51 49 50 49 51 49 35
41 42 42 46 50 49 46 37 29 30 33 37 37 43 49 48 46 49 54 60 62 60 58 58 56 57 58 55 43 18 10 10
43 48 52 53 52 48 38 35 36 36 38 43 48 48 49 54 59 61 58 53 48 49 52 51 45 29 16 8 7 8 10 10
53 55 54 50 42 39 42 43 44 46 50 55 62 69 66 60 53 49 42 34 28 22 19 18 16 12 8 9 11 11 11 10
52 49 44 44 47 44 42 46 53 59 66 66 62 55 49 48 47 42 32 23 21 20 17 14 13 17 16 13 10 8 8 9
49 49 49 45 42 43 48 53 56 57 52 45 44 47 42 35 33 32 27 18 16 16 19 19 18 14 11 10 10 13 17 19
51 48 45 43 46 49 45 43 44 45 46 43 40 35 34 32 28 22 18 22 23 20 18 18 11 12 13 14 23 41 88 99
47 47 45 42 41 40 40 41 44 45 45 52 46 41 36 26 24 28 37 32 30 12 13 13 14 18 26 42 81 100 100 100
54 49 43 40 42 42 45 48 50 52 57 76 75 65 46 27 32 35 32 31 19 12 14 19 43 75 100 100 99 98 98 98
48 46 44 43 45 50 54 51 47 54 84 97 86 75 35 29 24 19 26 25 14 16 31 67 89 98 100 100 100 100 99 98
44 45 48 49 50 49 52 69 84 85 100 100 95 72 40 30 17 17 17 18 35 53 68 80 86 87 89 94 99 100 100 100
48 46 45 46 48 59 64 76 100 85 78 87 71 46 39 26 16 14 19 43 69 79 86 85 84 80 80 80 85 90 93 92
56 50 54 58 66 80 97 62 64 75 97 70 49 42 59 26 16 22 52 68 74 68 45 28 23 22 22 22 23 24 27 36
58 58 64 81 100 100 100 75 98 98 58 38 49 77 50 18 23 53 64 68 56 32 23 21 21 19 18 16 16 15 15 16

GFSFLT1_500_rhum_027.txt.gz
RH
22 28 32 38 38 46 47 50 43 48 44 54 54 55 52 51 48 45 48 44 42 36 31 31 33 31 36 43 42 42 41 40
30 34 34 36 41 43 48 45 49 52 55 60 62 57 53 57 62 59 61 52 43 35 34 34 35 37 37 39 43 44 45 59
34 35 38 41 47 51 53 53 58 65 65 65 68 65 65 65 54 49 39 31 35 37 40 41 40 39 40 42 42 43 43 46
29 33 39 45 52 57 63 66 67 66 69 67 68 67 58 48 36 36 38 45 49 62 55 49 51 54 49 48 48 49 47 48
30 35 41 48 55 61 58 54 56 64 66 57 49 43 38 39 38 44 50 56 59 59 54 49 51 54 48 46 44 38 35 29
36 37 42 47 49 48 54 58 60 53 44 41 41 41 43 47 54 52 57 59 55 53 49 49 46 44 38 32 26 21 20 20
35 40 42 48 56 58 58 56 47 42 48 48 50 54 57 54 53 57 52 51 50 44 38 35 34 34 34 31 24 19 16 15
40 47 55 54 56 55 51 45 49 45 43 47 51 49 49 46 46 52 52 41 37 37 41 42 36 30 26 22 24 24 22 19
52 56 56 54 53 50 54 50 47 45 44 45 46 43 44 52 51 47 45 50 47 57 58 57 44 38 31 18 13 10 9 9
54 57 56 54 49 47 44 43 41 41 44 44 44 47 48 51 54 60 63 67 76 84 76 57 38 17 10 13 13 10 10 10
60 59 56 54 54 52 48 47 48 47 46 45 50 59 61 52 49 54 74 89 79 66 50 33 11 8 12 12 12 13 15 19
63 64 64 61 52 43 44 45 49 49 46 49 52 51 50 50 57 66 70 69 64 47 23 13 9 12 14 18 26 44 56 86
63 57 54 48 44 48 54 52 50 49 50 53 53 52 66 73 66 71 87 63 38 20 24 12 13 20 40 62 74 80 85 92
63 57 52 50 52 55 54 55 52 52 56 60 74 96 97 82 85 76 54 34 24 25 15 18 32 53 59 64 74 80 83 88
59 55 55 56 55 49 48 50 55 58 64 80 80 78 76 69 65 54 34 19 19 16 31 62 66 65 64 52 38 36 42 60
60 58 55 48 47 48 51 58 58 64 74 80 72 71 67 59 49 33 24 25 20 27 62 72 74 58 38 26 22 21 21 21
54 46 41 40 39 45 59 56 84 100 100 78 72 67 46 34 30 29 26 22 23 59 73 76 59 38 29 23 21 20 20 18
32 30 34 45 58 68 92 100 92 81 79 66 60 38 34 35 39 35 27 26 50 78 77 64 47 34 25 23 22 19 16 16
41 46 63 83 94 100 100 92 86 71 60 58 40 38 41 44 41 28 29 43 80 79 68 51 39 31 26 23 18 17 18 18

GFSFLT1_500_rhum_030.txt.gz
RH
18 20 29 28 29 31 32 39 37 60 65 53 65 59 55 50 52 49 54 50 36 30 29 27 27 27 31 36 35 34 34 35
23 24 28 23 27 29 48 48 64 60 59 65 60 58 51 52 56 47 46 30 33 33 32 34 35 35 39 40 38 37 37 37
26 28 29 28 36 44 57 65 68 71 67 64 63 58 61 63 58 38 37 38 38 38 40 40 41 42 42 41 36 30 27 29
30 34 38 42 51 60 66 58 63 75 62 50 58 64 58 47 46 46 44 42 41 44 44 42 36 36 37 36 34 32 31 31
32 36 39 47 55 56 53 49 50 56 64 64 58 49 50 52 49 45 45 51 52 47 43 42 42 45 41 40 39 40 41 38
39 43 46 50 49 47 50 56 56 52 56 52 51 50 48 49 50 46 43 39 39 42 48 50 50 56 65 58 50 52 64 64
42 46 40 39 45 53 60 59 56 51 48 49 47 46 44 42 41 40 41 45 48 51 53 52 48 50 54 68 89 79 59 50
44 41 42 44 48 52 59 59 55 51 50 46 41 42 43 44 46 45 47 51 54 53 53 54 58 65 68 61 55 50 36 16
43 44 45 47 52 60 60 57 59 56 51 45 45 46 50 51 47 48 55 63 63 62 70 72 64 58 60 49 26 8 6 5
45 49 54 61 66 64 61 61 58 55 53 55 56 56 54 54 62 68 65 61 70 71 69 64 62 50 26 8 7 7 8 8
58 59 69 70 68 66 63 57 50 44 44 46 46 48 54 61 60 62 72 82 70 70 67 52 25 12 10 10 11 12 20 33
65 72 78 75 68 52 39 39 39 37 34 34 38 44 55 57 65 74 71 70 70 60 36 19 13 11 12 14 19 39 54 62
84 78 67 47 40 42 39 31 27 27 28 36 45 45 57 80 89 94 78 63 55 28 21 18 18 17 17 28 48 50 58 53
69 57 46 50 50 36 30 30 26 30 41 48 55 71 100 98 87 74 58 49 28 26 24 26 22 24 44 69 70 68 50 35
66 58 59 47 37 33 31 28 36 43 52 84 99 96 92 82 66 49 48 28 26 27 32 25 26 50 81 78 68 53 42 32
65 61 43 33 34 34 37 40 44 62 89 99 93 71 70 52 33 34 28 25 25 30 25 26 49 87 79 69 51 41 33 26
54 42 36 38 38 38 42 48 57 86 73 69 60 44 27 23 28 30 24 25 27 25 30 46 91 85 69 49 42 33 29 24
43 40 36 38 37 37 45 51 54 60 59 45 29 15 25 44 32 26 25 26 27 32 39 90 90 70 50 41 33 28 21 21
40 39 39 37 42 53 52 41 41 39 24 12 11 10 19 22 24 24 28 31 36 37 90 89 74 52 43 34 26 23 37 51

GFSFLT1_500_rhum_033.txt.gz
RH
19 20 21 25 26 31 50 32 23 36 40 47 53 45 48 47 45 50 48 45 38 34 36 36 37 37 38 39 36 36 34 30
24 23 28 41 64 78 58 41 34 39 39 42 59 52 53 53 53 50 42 40 41 43 43 40 39 36 33 31 29 28 28 30
30 40 47 58 74 55 42 56 63 49 49 55 55 61 64 64 60 48 49 47 42 39 34 32 31 32 33 34 35 33 32 33
38 42 43 43 44 49 58 68 60 47 50 58 64 63 63 59 58 52 45 41 38 36 37 37 37 36 36 34 34 38 41 43
39 46 56 60 62 59 56 46 47 57 63 63 60 58 57 56 53 50 46 45 44 45 46 46 44 43 42 45 46 45 46 47
41 44 48 52 54 49 45 48 48 52 62 64 60 58 61 64 55 46 45 50 53 52 53 54 54 55 57 56 56 55 55 52
40 45 48 51 51 53 55 53 54 57 58 58 62 62 54 46 45 44 47 50 54 58 60 58 58 59 60 60 71 69 64 60
48 47 42 42 47 50 59 67 71 70 70 73 58 43 36 26 23 27 38 52 51 50 52 55 66 74 82 74 64 57 48 29
62 65 55 52 58 61 66 72 76 84 66 50 50 40 28 25 26 30 35 41 39 47 63 61 82 74 66 60 46 24 9 7
74 70 69 70 70 76 80 83 70 56 49 28 28 30 28 27 36 47 51 61 72 84 87 90 76 60 45 26 11 10 10 11
63 72 74 82 86 84 66 50 43 27 28 31 31 24 26 46 60 62 86 100 100 100 88 65 43 28 15 13 12 15 18 19
84 88 98 94 68 49 45 32 26 26 25 24 26 30 33 47 52 72 84 73 68 62 47 30 20 16 16 18 21 22 23 39
94 82 62 51 49 45 33 31 26 27 30 34 36 35 35 45 83 70 57 43 34 24 18 22 19 20 26 26 26 28 64 83
78 56 50 52 48 38 36 33 35 34 38 40 34 34 37 41 43 34 18 14 16 18 20 22 26 31 31 34 43 86 89 81
63 60 53 46 42 41 39 38 37 34 36 46 47 36 31 18 8 9 10 11 15 20 23 26 31 32 36 43 88 88 79 61
58 53 48 46 48 49 49 39 39 40 44 38 36 22 10 9 8 7 8 13 19 25 30 33 35 40 38 82 89 77 55 45
54 51 51 50 45 35 31 38 46 43 33 24 11 9 9 7 8 10 21 20 34 50 39 43 47 43 80 87 77 55 46 37
53 48 41 34 30 31 40 39 38 33 22 11 9 8 8 11 40 97 100 98 68 58 48 57 62 89 88 77 56 46 38 28
47 37 29 30 32 35 38 39 36 23 15 9 8 10 12 18 100 95 100 61 87 95 68 76 90 91 77 57 48 42 29 28

GFSFLT1_500_rhum_036.txt.gz
RH
10 7 11 19 34 47 70 88 100 100 93 71 52 55 54 57 54 51 50 46 45 44 43 42 43 44 43 42 41 39 38 36
14 12 15 52 65 79 84 98 87 67 42 37 46 49 55 69 62 58 53 50 49 54 59 55 50 44 41 39 36 32 27 22
33 27 57 68 69 85 84 40 38 37 44 50 51 58 64 65 63 60 59 62 70 64 49 42 36 28 20 15 13 17 20 20
76 70 54 54 47 42 40 44 47 50 57 56 60 67 74 74 69 68 81 81 55 46 33 23 20 17 16 17 22 25 26 26
93 88 91 76 59 58 65 72 75 69 59 60 62 72 78 79 89 93 62 42 32 29 30 28 22 23 29 29 27 25 27 31
100 100 86 60 61 70 66 61 58 57 59 69 76 80 79 94 77 53 39 34 36 38 35 37 42 45 40 36 37 40 48 59
67 60 76 80 83 72 76 59 58 67 74 83 89 86 56 38 27 30 34 38 40 37 37 41 43 47 47 55 58 66 68 74
71 95 100 94 86 83 73 68 69 69 82 88 60 38 27 31 33 36 35 30 29 32 36 38 44 43 43 51 74 98 100 100
99 97 70 69 76 88 88 83 88 92 68 56 51 36 35 33 28 22 20 27 29 34 32 30 31 36 44 42 41 40 34 26
60 56 59 89 84 87 84 71 52 49 40 34 34 31 24 18 20 26 36 36 33 29 28 22 15 12 11 13 17 17 16 18
60 77 93 76 66 55 51 45 37 36 37 34 29 20 17 21 31 40 41 37 32 23 12 9 9 10 12 14 16 19 23 26
83 100 90 62 52 47 40 38 38 39 34 26 22 20 26 34 42 43 38 27 12 9 9 8 9 13 18 19 22 25 27 28
100 84 62 58 55 52 45 42 37 29 26 26 29 37 40 43 43 34 15 9 9 8 7 8 22 39 28 23 29 32 34 37
70 63 62 56 51 45 37 31 35 40 43 41 37 40 46 41 26 13 10 9 9 7 11 33 45 90 72 33 37 47 48 51
66 63 58 54 52 52 53 54 44 33 28 28 36 47 43 28 21 19 13 8 8 19 49 52 83 100 51 34 53 57 84 87
62 62 60 58 55 44 37 33 26 24 36 49 43 40 34 28 20 11 7 9 15 93 96 98 100 59 35 52 72 88 90 84
68 64 57 43 30 29 26 24 31 31 26 28 40 36 30 21 11 7 11 15 52 100 100 100 93 46 52 83 88 86 71 56
60 45 31 30 31 27 31 29 26 30 43 48 36 20 15 9 8 11 14 25 97 100 97 95 86 60 93 83 77 68 52 42
39 30 32 32 33 33 34 35 40 51 50 34 19 14 9 9 11 12 20 100 100 100 100 96 77 92 83 72 68 48 41 38

GFSFLT1_500_rhum_039.txt.gz
RH
11 11 11 10 11 42 67 92 98 97 97 96 78 45 46 45 50 54 48 53 58 59 60 63 57 41 29 19 14 15 14 12
21 20 24 31 58 78 99 99 100 89 78 61 46 46 56 60 48 49 58 64 66 66 64 38 27 21 19 17 18 18 18 16
36 31 63 77 98 88 70 55 47 54 64 63 59 51 46 45 49 61 71 75 76 72 46 35 26 24 20 18 16 15 14 13
65 62 78 81 75 66 64 50 41 43 48 54 53 52 52 56 67 75 77 74 58 44 35 29 28 25 22 21 22 22 20 21
95 95 92 84 94 89 75 68 64 64 63 72 67 61 65 79 91 94 88 82 72 50 38 38 39 38 33 29 27 28 29 26
99 98 98 95 100 92 90 90 100 100 100 95 79 77 93 100 100 93 58 39 36 36 36 36 30 25 28 32 35 33 29 26
84 51 61 86 78 95 95 99 100 96 84 84 93 98 97 74 55 46 41 39 33 22 19 21 26 31 33 32 28 22 16 12
74 93 99 99 98 95 100 100 98 86 94 97 85 59 52 49 45 38 27 19 17 18 20 23 26 29 28 23 15 11 9 9
100 100 100 95 97 100 99 85 82 84 58 51 46 41 38 28 21 19 18 16 17 17 20 27 30 26 17 13 10 9 8 8
51 54 59 66 72 63 62 57 47 43 39 36 30 25 20 20 18 17 19 21 24 27 34 32 24 17 12 11 8 8 10 18
55 59 66 68 57 54 52 47 43 40 36 28 21 20 19 18 18 19 23 26 31 41 34 25 18 13 10 8 8 12 45 43
57 65 71 66 64 59 52 49 48 40 26 22 22 21 22 23 24 25 32 38 43 38 30 20 13 10 8 10 20 45 52 57
49 53 56 60 56 57 57 54 39 26 24 28 26 28 29 28 30 33 38 41 40 36 24 12 9 13 21 43 81 96 99 54
50 57 59 58 61 61 58 45 32 29 32 29 32 32 30 33 35 37 42 41 33 20 12 9 14 24 44 100 100 100 98 41
62 64 66 66 70 69 51 40 33 35 32 34 34 35 35 39 44 46 40 32 20 11 9 10 17 41 100 100 100 88 45 84
69 71 72 74 70 54 42 38 37 35 38 42 42 39 41 46 47 44 34 20 11 9 12 15 54 100 100 87 79 63 81 82
75 82 83 73 60 50 40 38 40 45 45 42 39 45 51 52 42 29 17 10 9 9 18 39 89 100 87 99 72 81 78 71
78 77 69 55 46 44 45 49 53 50 42 40 44 49 54 46 28 17 10 9 10 16 18 55 56 77 93 87 77 74 54 40
66 58 50 55 59 62 65 60 52 44 46 51 57 60 47 28 18 11 10 13 19 19 24 30 49 77 78 71 71 47 39 37

GFSFLT1_500_rhum_042.txt.gz
RH
11 11 12 12 20 28 34 75 77 98 96 96 98 79 58 58 72 44 37 39 41 49 56 62 64 58 36 25 23 21 16 13
20 29 22 23 43 57 61 91 97 96 83 51 42 29 30 36 46 49 58 60 58 56 63 66 50 34 29 26 25 21 16 13
34 32 35 53 73 84 94 78 58 53 62 58 45 53 58 61 66 72 69 66 66 70 68 50 39 34 31 29 21 16 15 16
29 40 77 81 77 61 61 62 64 79 83 66 59 57 60 68 72 72 73 77 78 63 64 63 51 42 41 37 28 21 19 18
20 27 69 81 79 77 62 90 98 71 68 74 72 71 72 78 81 84 88 82 78 73 60 49 45 37 25 19 17 16 16 17
76 68 71 93 91 63 70 85 82 96 91 95 92 78 88 90 94 77 66 58 48 42 35 24 17 15 14 14 16 18 21 25
42 47 74 94 72 77 100 100 100 100 100 90 89 100 100 79 61 56 47 37 26 19 17 16 16 17 18 19 22 26 30 34
40 44 75 94 98 98 93 84 90 95 93 93 98 86 57 46 40 30 23 20 18 17 17 18 19 20 22 27 32 37 38 35
41 46 42 72 60 63 67 84 98 100 74 61 51 42 40 32 24 24 23 22 21 20 21 22 25 30 38 41 40 36 27 16
29 36 42 48 52 58 80 76 68 54 49 45 43 42 33 25 26 28 28 26 26 27 29 35 41 43 43 39 31 22 13 9
20 29 43 48 54 59 59 58 53 52 52 52 48 37 27 30 31 33 34 32 33 35 41 42 45 44 36 25 15 9 10 14
20 26 35 48 56 60 60 60 60 62 62 57 39 28 32 34 39 41 35 36 38 42 42 44 45 35 21 10 8 10 21 64
19 20 31 46 54 60 67 68 68 68 60 42 31 35 39 44 49 43 39 37 38 43 48 45 31 17 8 8 13 26 96 100
20 22 30 48 62 66 67 69 72 61 44 41 43 45 56 56 50 45 41 40 47 51 43 26 12 8 8 16 30 100 100 93
20 26 33 43 52 58 63 63 56 47 49 55 64 71 64 57 50 46 48 51 52 42 23 10 8 12 15 20 45 95 78 92
22 28 33 42 52 58 61 58 55 67 77 81 78 65 62 55 50 50 54 53 37 19 9 9 16 17 19 29 49 65 82 71
25 30 36 49 64 69 68 68 79 86 84 74 65 63 58 56 51 54 50 32 16 9 10 21 24 24 29 37 49 63 71 62
28 29 37 65 81 80 80 84 90 83 72 70 65 56 55 54 55 47 29 12 10 11 25 32 33 34 38 54 65 66 51 49
30 34 54 80 82 65 84 87 81 78 76 70 59 54 57 58 45 26 9 10 12 15 43 42 44 41 51 62 64 58 50 43

GFSFLT1_500_rhum_045.txt.gz
RH
16 17 17 16 24 31 42 46 51 76 88 97 93 57 40 48 46 63 56 54 60 62 66 69 69 68 66 57 46 37 30 24
15 11 22 60 36 42 41 41 93 88 94 65 42 30 38 46 56 59 66 64 72 75 74 60 46 39 32 25 23 20 18 17
16 14 15 16 26 74 89 79 60 42 41 37 37 67 71 67 70 75 64 57 67 62 49 42 40 37 34 34 37 36 28 19
22 18 20 28 33 38 45 58 68 53 37 62 80 86 88 79 74 72 69 82 81 60 56 56 55 53 47 37 25 20 18 19
27 38 46 65 74 65 67 79 76 57 62 75 61 90 80 80 71 66 79 71 71 61 58 49 36 25 22 22 21 21 21 20
37 29 28 30 37 59 74 92 82 99 99 94 86 74 93 93 88 83 83 76 59 49 34 26 28 30 27 24 24 23 22 21
23 26 28 28 30 36 70 99 100 96 88 68 81 88 92 87 82 70 58 50 40 28 28 32 36 35 32 32 29 26 26 29
20 20 20 24 30 35 37 40 48 48 58 78 88 98 77 64 54 49 47 43 31 30 37 42 42 42 38 34 33 33 39 41
18 18 18 19 22 27 34 40 48 54 64 69 72 66 54 52 53 55 47 30 34 43 50 51 49 44 42 41 40 42 40 34
20 20 20 21 21 24 32 44 51 57 56 55 54 54 58 64 59 40 33 40 52 60 60 56 51 49 43 38 39 38 27 11
21 20 20 21 22 25 28 38 52 58 62 66 72 74 68 52 41 48 59 64 60 57 56 50 49 44 38 41 34 14 7 7
23 21 18 18 20 24 29 38 50 59 74 73 65 58 52 50 63 67 64 55 51 51 50 48 45 42 43 29 10 7 8 13
31 28 23 20 19 22 28 39 56 56 63 70 69 60 61 70 64 59 55 55 58 55 49 47 45 42 16 6 8 14 16 17
35 35 31 27 23 22 31 44 66 75 73 70 66 68 71 67 64 62 63 66 56 50 50 50 32 9 8 11 19 22 23 31
32 35 33 32 28 26 34 54 65 74 75 72 63 69 70 71 69 70 70 55 50 49 50 24 8 8 12 26 27 28 32 41
28 34 33 33 31 30 38 54 58 66 67 59 78 80 81 76 76 66 58 51 48 49 21 8 8 11 25 37 35 34 40 46
29 34 34 36 34 34 45 61 69 66 75 92 91 82 80 70 63 58 50 50 47 19 8 8 11 16 45 47 45 44 49 55
34 36 40 38 40 49 64 76 84 94 95 88 84 83 71 67 58 51 53 46 18 8 9 11 15 44 55 56 57 58 65 57
34 40 42 44 50 60 80 90 93 90 87 90 87 76 74 64 53 58 45 18 9 10 12 17 33 64 62 68 70 70 68 65

GFSFLT1_500_rhum_048.txt.gz
RH
17 17 16 18 17 16 28 36 45 63 100 84 97 98 85 49 82 90 100 93 80 71 70 67 72 68 53 39 32 27 25 23
17 16 17 20 25 30 25 27 49 64 89 96 82 58 60 70 89 93 89 78 78 69 57 60 60 44 37 36 36 32 30 25
28 22 15 16 26 25 23 24 25 32 36 43 76 72 78 98 99 86 74 77 91 94 85 82 74 66 65 64 45 32 31 35
17 17 21 42 50 61 72 69 62 53 49 53 71 76 73 90 91 74 70 79 78 78 76 73 64 64 59 36 31 34 41 44
23 45 61 57 38 30 29 28 31 31 33 39 60 59 72 72 63 59 82 87 70 67 73 70 61 47 32 32 36 43 40 38
34 30 27 24 20 20 21 25 26 28 34 44 41 45 49 55 62 86 82 76 77 72 66 60 49 35 32 36 41 39 38 38
20 17 16 17 18 18 18 18 17 18 20 23 31 38 50 59 70 74 74 67 66 66 61 49 38 40 43 41 40 43 46 43
18 19 20 20 20 19 19 19 20 21 21 24 32 41 54 60 66 64 64 67 68 58 44 41 43 44 44 45 46 46 40 36
18 20 21 19 19 18 18 17 18 21 24 26 38 53 62 64 66 68 72 64 51 46 47 49 50 48 46 50 48 43 39 33
24 23 22 20 19 19 18 17 17 20 24 28 32 38 45 56 61 58 58 54 54 52 51 49 48 51 52 49 43 37 34 28
29 29 29 30 31 29 27 24 22 20 23 27 31 38 46 50 60 63 56 52 59 58 52 53 55 51 47 40 35 34 23 7
28 29 33 32 34 36 34 30 28 25 24 25 28 37 53 64 67 55 59 70 65 58 60 57 50 45 40 38 35 16 7 8
24 25 25 26 30 35 35 32 31 29 27 29 37 50 62 65 62 72 72 68 72 72 61 55 48 42 41 31 11 8 9 19
16 17 20 22 23 30 34 34 35 34 34 39 52 64 71 76 82 81 80 80 76 66 60 46 44 44 26 10 9 10 21 38
16 18 20 20 23 30 35 38 39 39 45 56 71 83 88 90 88 89 87 81 74 60 47 48 47 23 10 10 11 19 48 50
17 19 20 21 24 31 37 42 44 50 59 75 85 91 92 92 94 92 85 73 60 48 51 49 23 10 10 12 17 49 58 61
19 20 21 23 27 34 43 47 51 57 66 79 92 97 98 98 96 86 72 59 48 50 52 23 10 10 11 17 40 64 64 72
22 22 22 26 32 40 46 50 55 61 76 98 100 100 100 98 89 74 60 50 52 55 24 10 11 12 17 29 65 69 78 77
24 24 26 32 42 50 56 60 63 77 98 100 100 100 100 98 89 68 54 54 56 24 10 12 12 16 24 60 70 76 76 63

GFSFLT1_500_rhum_051.txt.gz
RH
18 16 16 17 17 17 17 20 39 45 47 63 79 89 81 88 70 81 78 96 100 98 80 78 94 77 68 67 60 49 42 38
21 22 21 19 31 27 16 14 14 17 18 24 38 36 46 49 68 64 72 78 78 80 73 90 89 68 63 63 63 61 60 56
24 22 21 16 17 16 32 32 45 54 38 27 29 30 31 44 59 54 60 66 84 90 100 95 83 78 72 72 69 57 44 39
22 20 21 21 38 42 34 28 25 23 23 22 22 20 20 24 31 35 44 51 58 75 80 77 71 74 77 71 60 47 48 48
21 22 26 32 28 22 19 17 17 16 16 17 18 19 19 22 22 25 29 48 56 62 64 69 75 76 71 59 48 44 42 39
26 25 21 18 17 18 18 18 18 18 18 18 18 19 19 19 20 24 27 37 45 62 69 72 70 60 53 51 50 42 37 37
18 16 18 19 19 19 18 18 17 16 15 14 14 15 16 16 17 20 31 43 52 54 55 54 51 49 48 48 41 40 39 36
16 17 19 20 20 19 20 24 26 26 23 21 20 18 17 18 20 26 32 40 48 51 54 60 54 54 57 52 47 44 44 43
18 22 24 24 24 25 26 28 32 34 32 29 26 23 22 21 22 26 36 40 48 56 63 58 61 54 49 49 58 57 54 43
20 26 28 26 27 28 28 28 34 36 36 33 30 29 28 27 27 27 33 44 55 61 66 68 62 59 63 64 65 56 41 32
22 26 27 25 25 24 23 24 24 29 33 34 33 33 32 31 34 40 49 64 71 75 72 63 62 71 74 66 53 40 33 31
16 16 16 16 16 17 19 21 22 23 27 33 35 37 36 37 40 51 70 75 78 75 72 77 81 76 64 51 39 34 30 14
17 16 16 16 16 17 19 21 22 22 27 33 35 40 43 41 44 65 77 82 80 83 87 87 80 65 51 41 34 30 14 8
17 17 17 17 17 18 19 21 22 24 28 33 40 47 46 45 62 84 89 90 95 98 94 85 74 57 44 36 27 11 9 10
16 16 17 17 18 20 22 22 23 27 33 41 50 55 51 65 87 96 98 100 99 97 90 82 64 48 40 28 12 9 11 13
16 17 18 19 20 23 24 26 28 36 44 53 53 51 70 87 97 99 100 100 100 92 83 67 50 41 28 11 10 12 13 21
17 18 19 21 24 27 28 29 36 47 52 54 54 74 94 100 100 100 100 98 93 85 74 53 48 33 13 9 12 13 19 47
18 19 23 27 31 31 30 38 49 52 51 56 76 99 97 100 100 99 96 90 85 73 58 52 36 15 10 14 14 20 35 71
24 27 31 35 33 33 41 53 49 54 67 90 96 97 100 100 99 96 93 88 83 68 56 40 16 9 14 15 18 27 67 80

GFSFLT1_500_rhum_054.txt.gz
RH
11 12 12 10 13 17 21 21 78 54 41 32 24 30 32 24 25 26 21 20 24 26 33 45 56 52 59 65 64 60 58 56
15 18 19 23 21 24 30 48 23 24 30 24 17 16 13 15 17 16 19 22 27 31 27 35 52 67 61 63 69 74 80 78
18 15 15 15 11 11 55 34 27 19 16 14 14 15 15 16 16 17 19 19 21 22 32 41 45 59 64 67 79 82 77 66
17 15 16 15 24 42 38 23 18 16 16 17 17 17 16 17 16 16 16 15 17 20 24 31 42 50 73 76 68 62 55 50
18 16 17 24 30 29 19 18 19 18 18 17 17 20 22 24 23 22 20 17 17 18 22 29 47 58 54 53 53 51 52 51
17 17 25 28 22 18 19 18 18 20 23 27 28 28 28 26 25 24 23 22 22 22 24 27 28 33 43 47 47 47 39 38
23 20 17 18 20 20 20 20 22 26 28 32 32 32 31 30 30 29 28 28 26 25 25 25 25 38 54 57 53 57 60 50
14 16 17 20 22 23 24 25 26 29 29 30 33 34 34 34 33 33 33 32 32 31 30 34 48 64 70 69 62 53 65 58
15 15 22 25 27 27 26 25 24 24 24 22 23 23 23 27 32 34 34 36 38 37 41 56 69 74 72 73 70 67 67 64
15 14 17 24 25 24 19 16 16 17 17 18 20 21 22 22 28 31 36 41 42 43 51 61 81 83 78 76 76 71 68 64
14 14 14 15 15 16 16 16 16 17 17 18 19 21 22 22 25 36 44 47 50 54 65 87 89 84 83 79 76 77 71 54
17 17 17 18 17 17 17 17 17 18 19 20 21 22 26 29 36 45 50 54 55 67 89 89 83 85 82 81 80 71 56 40
17 17 17 16 16 16 17 17 18 19 21 23 25 26 32 39 50 55 59 55 67 89 88 83 86 91 87 82 73 61 42 30
15 16 16 17 17 16 17 19 20 21 24 28 29 31 41 51 58 61 59 74 91 91 87 94 90 90 83 81 69 50 32 15
14 16 18 16 16 17 17 20 23 26 32 32 34 41 56 62 60 64 87 96 99 100 100 98 96 89 82 72 54 39 16 8
19 18 15 14 16 18 21 24 30 36 36 37 46 58 62 64 82 98 99 100 100 100 100 100 99 92 79 50 37 21 8 10
15 14 14 16 20 25 28 34 38 36 37 51 62 58 83 99 100 98 100 100 100 100 100 100 97 85 57 37 17 9 10 15
18 20 23 26 28 33 37 38 34 39 57 58 53 91 100 100 100 100 100 100 100 100 100 95 90 63 37 16 10 11 15 17
24 26 30 33 34 37 36 33 45 57 50 62 94 98 100 97 100 100 100 100 100 100 99 89 63 43 18 10 12 16 19 24

GFSFLT1_500_rhum_057.txt.gz
RH
8 8 8 9 15 16 12 17 40 50 35 27 38 29 17 15 15 15 16 17 17 17 17 19 21 22 22 21 22 28 34 39
8 7 5 7 20 26 19 24 62 40 29 32 16 15 15 16 16 19 20 21 22 21 19 18 20 21 24 24 21 18 23 33
9 9 7 7 10 14 22 60 61 36 16 15 16 17 20 21 24 25 24 23 23 24 23 23 22 23 24 26 26 24 28 42
11 10 10 11 23 26 33 18 20 16 16 19 21 24 26 28 26 25 24 25 26 26 27 27 27 26 25 26 26 27 38 55
13 14 14 18 20 17 15 16 16 18 20 24 25 28 30 31 31 31 30 30 30 31 30 30 28 28 31 31 29 30 46 55
22 17 19 22 16 17 18 18 20 20 22 25 26 27 24 20 18 18 18 18 19 20 25 28 33 38 38 32 25 39 59 56
24 21 16 17 18 20 21 22 23 26 26 27 24 20 17 16 16 17 18 20 21 21 22 24 27 32 30 26 38 60 58 60
13 14 16 17 19 23 26 27 27 24 19 17 16 16 16 17 18 20 21 21 24 26 30 34 40 38 33 44 73 73 65 60
18 17 15 15 18 21 20 18 16 16 17 17 17 17 18 18 20 22 22 24 26 32 40 51 52 46 53 80 84 79 70 67
15 15 14 14 14 15 16 16 17 18 18 18 18 19 20 23 25 27 28 31 38 46 56 58 52 62 88 96 87 79 75 70
17 16 16 17 18 18 17 17 16 17 17 18 19 21 22 24 28 30 32 41 51 60 65 62 73 94 100 91 85 83 78 81
18 18 18 16 16 16 17 17 16 15 15 16 19 20 24 29 34 33 39 48 57 60 64 82 99 100 98 88 91 90 94 92
23 21 19 15 14 13 14 16 17 17 18 19 21 26 32 37 36 37 50 58 53 70 94 100 96 87 88 94 97 100 100 92
24 21 16 14 14 14 15 19 40 51 40 27 32 38 40 38 40 56 57 55 89 100 100 96 93 85 97 100 100 100 94 68
21 16 13 14 28 30 51 65 66 29 33 40 43 42 38 49 63 57 64 99 100 98 93 93 97 98 100 100 99 93 72 41
19 16 31 81 74 76 57 34 37 41 44 41 37 39 59 66 54 82 100 100 100 100 100 100 100 100 100 100 95 75 41 16
44 58 74 22 29 37 37 39 39 40 39 34 46 64 57 49 94 100 100 100 100 100 97 100 100 100 100 96 70 38 12 9
25 25 26 28 25 26 23 21 26 31 39 58 59 49 65 100 100 100 100 100 91 97 100 100 100 96 87 60 24 10 10 14
25 20 17 13 12 13 17 23 29 42 52 46 56 96 100 100 100 100 96 100 100 100 100 99 93 80 36 12 9 11 16 23

GFSFLT1_500_rhum_060.txt.gz
RH
15 20 19 11 17 15 18 23 24 44 62 29 25 28 15 16 17 20 22 23 24 24 23 23 23 23 24 24 24 24 24 24
10 12 15 12 14 12 13 14 19 68 64 24 15 16 19 21 23 24 24 26 26 27 27 27 27 26 26 25 24 24 25 26
8 11 14 16 17 24 33 65 66 51 24 15 18 21 24 25 26 27 27 25 23 21 19 20 20 20 21 22 22 22 25 28
10 10 11 14 18 21 34 33 29 21 16 18 20 23 25 25 25 24 21 19 17 18 19 20 20 21 21 22 23 23 28 33
18 14 11 16 18 17 17 26 37 18 19 20 24 25 24 25 22 18 17 16 18 18 20 20 22 24 25 24 26 34 42 39
28 30 23 18 14 19 51 46 27 22 23 25 24 22 22 16 16 17 17 18 19 20 20 21 23 25 27 31 40 45 39 34
30 25 26 18 20 40 36 25 25 26 27 24 17 16 16 17 17 17 17 17 17 18 20 24 27 28 29 33 40 40 36 51
15 16 49 33 33 22 22 24 24 24 19 17 17 17 17 16 16 16 16 16 19 23 28 33 30 28 33 43 44 42 57 70
18 23 37 23 15 14 14 15 16 18 18 18 16 15 15 15 14 14 16 21 26 32 34 34 35 44 56 53 58 76 84 83
18 17 16 15 16 17 18 18 17 17 16 16 15 13 13 14 17 23 29 50 40 38 37 44 58 66 66 79 88 93 94 82
19 19 19 19 18 18 17 16 15 15 16 16 14 16 21 30 37 33 37 41 40 41 49 67 70 77 100 98 94 91 89 88
21 22 25 25 22 20 18 17 17 16 19 27 48 70 82 100 79 54 47 42 41 56 71 74 82 99 100 99 98 92 81 86
27 23 26 26 24 22 22 20 21 23 29 29 30 48 65 100 58 42 35 38 58 66 53 61 85 89 84 80 86 90 94 100
24 27 27 24 19 16 12 33 48 39 38 54 76 56 60 40 37 36 48 61 54 46 67 87 94 86 86 90 87 92 100 100
26 31 21 13 11 16 40 75 67 61 85 70 43 44 38 36 42 61 59 49 64 86 91 96 95 98 100 100 100 100 100 90
31 34 42 28 47 65 72 86 76 71 46 34 33 34 36 49 60 53 53 88 95 100 100 100 100 100 100 100 100 95 80 33
21 88 63 74 80 81 72 64 28 26 34 36 34 35 58 54 49 73 100 100 100 95 99 100 100 100 100 98 91 56 19 10
22 54 62 54 47 57 20 18 25 31 28 32 53 53 47 61 92 100 100 100 100 100 100 100 100 100 100 87 48 19 12 10
29 26 22 16 16 16 18 19 19 26 42 53 49 53 78 99 99 99 99 99 100 100 100 100 99 97 72 37 18 15 11 13

GFSFLT1_500_rhum_063.txt.gz
RH
19 19 24 26 15 15 15 17 15 25 58 65 39 28 17 15 17 20 22 24 24 23 21 20 19 18 18 18 19 19 20 21
36 24 14 14 13 11 11 15 19 41 72 55 18 15 17 19 22 24 25 22 20 18 17 17 17 17 18 19 20 20 21 23
14 14 11 10 11 11 16 32 71 51 40 23 17 18 21 21 23 23 20 18 17 17 17 17 18 18 19 19 20 22 23 26
19 18 16 15 16 20 24 33 38 33 27 30 33 20 21 21 20 16 16 16 17 17 17 18 18 18 18 19 22 26 28 30
16 15 21 18 21 25 24 29 34 52 31 59 50 29 19 17 15 16 17 17 17 17 17 18 16 19 22 26 29 28 28 31
24 23 28 34 48 43 28 71 77 45 42 39 24 21 16 16 17 18 17 16 16 17 18 23 23 25 29 31 28 30 33 44
26 51 34 26 50 53 62 81 43 35 33 20 17 16 17 17 17 17 17 16 16 18 18 20 19 23 32 31 35 39 53 52
16 29 43 53 68 69 64 55 30 18 19 17 19 17 17 16 17 16 14 16 19 22 20 19 44 38 34 33 44 52 46 34
18 18 29 44 72 50 37 19 18 18 18 18 20 15 14 15 13 13 19 15 44 64 42 43 37 32 34 49 54 40 36 57
18 18 28 33 36 27 19 18 18 17 17 16 15 14 14 10 15 14 26 50 99 100 73 38 34 42 59 54 43 51 78 90
19 18 20 31 24 24 23 22 22 21 20 17 16 12 12 19 23 36 65 78 100 93 53 34 48 64 51 56 79 94 100 99
36 25 22 25 24 25 26 26 25 23 18 15 12 21 21 27 56 74 100 68 64 46 40 57 65 49 66 96 100 99 94 99
56 48 39 36 30 32 31 29 26 21 20 38 79 84 94 95 51 50 58 65 35 44 65 63 61 83 100 91 87 86 87 93
57 49 52 36 36 34 29 25 33 47 61 76 75 93 62 48 22 37 28 35 50 57 53 61 93 92 88 91 93 97 100 100
28 37 36 34 46 57 59 48 55 81 98 97 92 77 36 22 22 29 42 52 47 47 67 87 89 89 95 100 100 100 100 100
31 26 40 47 70 72 68 71 74 88 88 91 74 21 16 21 31 48 51 43 53 74 87 92 94 100 100 100 100 100 95 89
22 22 32 48 81 93 88 61 82 84 88 48 21 17 26 39 49 45 44 66 86 98 95 95 99 100 100 100 100 94 83 39
22 19 35 46 46 43 79 93 79 65 36 17 22 35 47 47 42 52 75 97 99 91 97 98 89 96 88 81 86 63 41 32
22 26 27 18 10 42 31 17 15 14 18 27 40 48 45 44 66 94 97 92 91 94 80 68 84 96 64 61 61 43 46 27

GFSFLT1_500_rhum_066.txt.gz
RH
53 64 60 50 64 71 65 45 25 13 20 42 53 41 41 28 19 18 21 23 24 23 19 16 16 16 16 17 17 17 18 18
18 17 17 16 15 15 15 14 11 12 41 68 53 30 21 29 20 22 23 23 20 16 16 16 16 16 16 16 16 16 17 20
22 14 13 12 12 13 15 19 28 47 54 46 26 23 26 21 22 22 19 15 15 16 16 16 16 16 15 14 15 17 21 22
20 16 14 16 16 18 22 26 34 36 30 29 43 50 25 20 18 16 14 16 16 16 15 15 15 13 13 16 18 20 20 23
25 18 15 16 17 19 20 21 23 42 54 51 77 86 46 20 19 16 17 16 16 15 15 13 12 13 18 22 22 24 24 28
59 46 40 63 40 47 38 21 39 59 80 52 80 75 63 18 17 17 16 15 14 14 12 14 20 26 46 70 44 25 23 28
55 32 52 67 42 65 54 42 72 75 58 63 85 76 32 19 24 15 14 14 14 15 19 21 27 54 79 87 69 28 26 43
37 22 33 38 58 76 90 88 86 90 48 43 62 40 17 31 21 16 15 17 22 27 20 38 49 54 67 56 62 34 48 40
21 17 23 41 54 84 96 57 21 19 24 44 41 19 34 35 17 18 22 33 35 31 48 96 82 71 53 64 39 47 41 44
18 20 19 30 46 85 52 20 20 22 24 31 23 29 46 19 15 29 50 30 39 45 71 91 87 55 36 45 48 38 43 71
19 20 19 19 22 51 30 24 24 23 24 27 32 35 21 16 30 53 28 18 30 57 47 76 42 39 50 44 39 56 83 85
38 26 22 26 30 38 42 31 28 29 32 31 29 25 26 56 62 60 60 55 39 34 38 32 42 46 42 48 76 86 90 99
74 66 58 56 56 78 59 39 36 36 35 40 44 72 75 91 78 64 99 84 44 23 32 43 46 45 60 83 89 96 100 100
42 66 77 82 61 62 65 58 53 68 83 78 80 76 100 66 61 85 100 43 22 35 46 46 48 72 84 90 98 98 98 96
18 21 34 39 44 62 72 75 93 92 82 74 73 84 84 82 73 70 36 22 38 48 46 52 77 92 97 95 92 84 56 63
23 31 36 35 43 59 74 81 95 92 78 63 91 100 77 52 66 37 26 44 50 47 57 81 92 94 90 78 53 12 29 70
30 29 25 37 55 61 66 76 82 59 67 80 92 65 77 68 28 32 50 51 47 60 76 86 88 87 61 21 5 10 25 26
22 22 23 25 45 53 60 60 19 25 44 43 49 42 20 29 44 55 50 50 52 73 84 81 74 38 8 5 6 7 18 43
28 28 26 27 21 14 12 10 10 10 11 13 16 21 40 55 56 51 44 50 82 86 82 63 22 6 6 6 8 13 38 58

GFSFLT1_500_rhum_072.txt.gz
RH
97 97 90 78 59 57 60 71 95 69 62 32 29 32 41 68 74 82 91 43 18 21 24 26 25 20 16 16 16 14 10 8
88 95 97 91 84 77 82 84 76 68 42 36 46 42 37 48 53 74 92 23 23 25 27 23 16 16 16 14 12 9 9 8
61 64 63 62 65 58 48 39 54 38 23 23 33 38 44 58 74 85 34 23 25 26 19 17 17 15 14 11 10 11 10 10
31 24 24 26 31 31 38 32 24 26 36 30 52 63 63 42 75 67 27 26 24 18 17 16 14 14 15 14 14 12 9 10
20 18 17 18 16 16 15 14 16 22 34 54 46 39 36 37 60 67 50 27 18 20 25 19 16 15 17 14 11 9 21 13
20 17 14 13 13 14 17 19 21 23 22 28 40 49 53 68 93 98 93 32 19 25 27 26 20 14 27 27 28 26 19 23
31 31 31 32 31 31 54 44 54 55 34 37 63 80 87 86 91 98 97 33 26 29 33 32 24 41 32 28 41 46 50 56
76 62 51 36 38 36 50 67 43 57 44 66 95 97 97 78 46 88 94 60 27 46 52 38 43 49 27 46 46 66 66 80
76 75 50 40 43 40 52 66 65 69 67 74 92 41 26 31 50 74 55 52 70 70 55 55 61 62 64 68 78 84 100 93
58 60 54 38 30 26 35 65 70 80 98 90 78 82 52 32 53 62 47 52 55 58 68 66 85 94 73 82 86 92 98 68
51 49 45 22 20 21 22 52 47 50 74 41 29 37 35 34 45 49 78 90 97 86 82 91 99 100 100 96 87 76 39 50
60 46 30 23 22 21 21 25 38 53 60 64 76 76 67 59 82 100 99 96 97 100 100 100 100 100 89 63 76 36 53 52
22 26 26 28 46 36 36 54 75 84 88 80 62 53 70 89 97 99 98 100 100 100 100 99 95 98 41 50 67 53 54 41
15 15 17 22 48 71 89 93 94 98 80 66 55 77 92 99 99 99 98 97 100 100 100 99 90 76 40 57 54 56 39 68
8 8 12 18 17 16 20 32 31 34 60 64 96 96 99 98 99 94 28 72 100 100 92 82 69 42 41 56 53 39 70 77
8 7 8 15 17 16 18 22 34 54 53 73 95 97 90 95 96 33 60 98 99 57 79 93 49 40 57 44 43 74 80 78
14 12 10 12 21 20 20 32 62 61 69 98 78 29 36 32 14 11 13 34 14 73 25 33 50 48 38 57 80 83 80 67
25 25 25 24 25 31 63 38 34 57 54 59 33 14 12 13 16 18 21 22 24 29 36 43 42 45 73 86 87 80 69 51
22 24 27 30 35 36 45 60 58 53 34 15 14 16 18 24 31 34 35 38 41 41 42 44 59 80 89 88 82 67 50 31

GFSFLT1_500_rhum_075.txt.gz
RH
100 91 98 96 100 92 90 99 95 95 94 85 81 81 89 85 72 87 81 79 93 58 19 21 24 26 25 18 17 17 15 12
97 97 95 74 63 63 77 99 97 88 48 34 34 42 57 55 70 78 87 96 81 20 22 24 25 23 17 17 16 14 12 10
73 76 85 90 75 69 65 71 74 62 40 36 47 50 54 62 61 65 74 96 66 28 23 25 23 17 17 15 14 13 11 11
52 46 30 33 37 43 45 46 68 66 51 38 33 32 51 51 56 66 85 97 33 24 26 24 18 17 20 16 13 11 14 15
18 18 15 14 14 15 15 16 21 27 38 49 40 37 51 55 58 42 82 93 67 34 25 18 18 25 27 18 17 22 22 16
29 20 16 15 14 14 14 15 16 18 26 35 31 43 41 64 38 46 82 96 97 79 46 24 29 25 26 24 40 48 28 34
65 53 34 31 27 25 24 51 64 46 44 39 30 22 33 50 59 72 81 87 94 99 87 71 40 39 36 44 56 50 44 38
70 45 66 70 62 45 44 45 45 69 50 57 59 35 35 77 95 98 90 86 96 96 74 57 63 63 56 50 52 36 38 64
64 52 63 46 45 39 40 45 40 60 61 69 97 99 76 96 32 70 91 75 68 65 57 53 75 75 78 65 69 61 73 97
72 53 50 51 49 31 22 20 20 43 71 62 82 66 47 35 32 31 44 58 72 75 66 84 90 90 67 79 98 89 96 100
69 62 54 39 37 29 22 21 21 22 29 31 40 56 46 47 49 60 83 85 89 90 100 91 72 72 99 100 100 100 100 95
69 69 55 57 41 27 22 21 21 21 22 26 38 44 51 71 78 69 73 85 96 98 99 81 97 98 100 99 100 99 98 94
51 48 34 25 34 32 35 37 29 29 37 48 73 91 92 84 71 66 87 98 99 99 97 63 77 100 100 100 99 96 100 80
37 26 19 16 17 20 26 38 62 79 78 100 98 98 71 57 78 98 98 98 99 98 92 92 100 99 99 100 99 95 88 55
18 14 10 8 8 12 20 20 24 29 31 40 58 41 56 78 94 98 88 84 98 89 82 67 100 100 100 99 100 100 56 52
6 6 8 10 10 8 11 13 17 21 42 50 62 65 71 88 98 89 30 37 30 17 13 14 30 45 25 21 41 49 48 57
8 11 15 18 20 18 15 14 21 36 38 69 80 100 100 89 71 23 31 21 15 18 24 29 31 35 46 56 50 48 69 80
11 17 22 23 24 23 27 28 36 77 100 96 97 92 82 52 15 14 17 20 28 37 39 42 50 57 55 51 63 75 80 82
21 22 23 22 19 22 27 32 44 76 91 89 82 59 23 16 17 20 25 34 38 43 49 55 62 59 62 74 79 79 76 70

GFSFLT1_500_rhum_081.txt.gz
RH
52 43 32 29 36 57 44 64 59 56 66 79 85 91 84 99 96 70 96 98 95 93 94 81 77 76 56 17 20 25 25 17
90 100 77 47 54 70 66 62 72 66 65 73 88 88 90 77 90 97 98 97 97 98 95 99 87 41 18 22 25 26 20 16
53 79 75 75 78 86 94 94 86 55 43 87 93 96 92 86 89 87 77 90 94 87 79 80 83 19 20 23 25 24 19 18
28 24 35 36 19 42 47 72 50 39 25 20 18 20 43 52 52 80 93 79 93 97 98 94 60 32 27 24 25 22 23 30
27 21 15 12 17 22 14 9 11 14 14 29 32 28 17 26 35 32 38 52 67 48 70 88 88 94 79 56 29 33 40 69
31 39 33 18 17 24 30 35 30 33 37 42 34 33 38 42 32 28 30 61 54 55 62 76 83 86 88 81 96 93 69 56
49 42 44 36 31 26 25 27 30 27 26 29 33 36 37 52 66 74 40 38 58 63 75 94 96 95 97 97 96 89 76 74
43 51 66 54 51 48 30 25 23 22 23 23 26 40 51 62 66 64 80 70 84 92 71 63 45 59 70 74 98 100 95 99
28 42 48 66 45 38 29 24 23 22 22 17 15 41 49 52 71 61 89 98 78 60 55 51 73 77 70 73 93 100 100 100
23 26 52 56 71 65 39 36 31 23 19 17 21 27 37 21 30 78 92 93 58 61 78 82 80 55 72 95 97 99 98 99
33 32 31 33 60 83 90 71 67 42 36 22 20 18 22 47 24 62 88 89 73 85 92 87 52 58 84 88 99 99 96 93
46 38 32 32 63 85 72 90 83 60 65 22 24 25 32 50 29 74 82 88 98 95 83 73 55 83 87 79 90 90 99 86
29 40 37 31 31 53 65 67 59 53 41 42 60 36 64 75 73 74 98 98 90 85 87 71 66 82 73 37 33 33 20 18
53 29 33 29 26 29 52 41 44 54 46 32 35 33 83 89 96 97 92 98 98 83 78 82 85 88 37 27 16 17 24 33
82 23 26 18 15 17 21 34 50 38 20 40 26 49 51 96 98 88 79 89 85 85 90 99 90 52 24 19 21 26 32 36
54 17 10 11 8 6 6 8 33 32 37 59 79 68 80 87 82 94 96 98 96 99 95 88 76 31 20 23 31 33 40 48
52 23 18 6 9 6 7 10 14 43 49 42 40 53 67 64 89 96 100 100 100 98 74 21 40 21 24 25 37 45 50 60
51 31 17 12 12 6 9 21 40 26 31 40 38 42 46 56 74 69 79 80 45 23 18 31 23 24 30 42 44 48 64 73
24 16 15 11 9 8 11 15 22 21 18 15 20 24 32 33 27 27 25 21 19 29 28 23 24 30 35 48 54 67 81 92

GFSFLT1_500_rhum_087.txt.gz
RH
60 58 30 16 16 32 38 32 38 55 51 45 54 52 70 97 98 91 99 100 100 99 89 90 90 92 82 65 50 64 55 33
46 62 55 20 27 49 47 44 47 65 64 69 80 75 81 93 93 90 99 96 97 94 85 66 83 85 55 55 75 79 59 27
34 24 76 72 63 55 69 57 55 65 60 55 55 69 95 84 88 94 94 99 96 85 84 66 54 49 76 76 80 72 38 21
21 25 36 86 96 80 66 71 64 71 64 57 61 73 72 80 79 87 79 74 80 89 92 90 85 94 92 92 96 28 21 22
34 27 18 30 28 64 57 33 27 30 48 67 73 73 74 76 80 84 82 88 92 94 98 100 99 99 99 100 63 37 46 70
39 35 36 23 30 24 25 26 22 27 26 22 18 20 23 27 34 33 42 49 56 81 94 98 85 75 94 100 92 85 82 90
37 41 35 42 32 29 33 36 33 37 35 29 30 33 32 29 32 33 34 34 35 40 59 83 65 78 94 86 92 92 96 69
30 31 37 44 36 36 36 29 27 25 24 26 32 36 37 33 34 40 49 53 56 51 44 56 60 68 75 89 78 62 55 69
31 28 29 36 48 37 31 26 19 18 19 20 19 19 17 21 27 30 26 31 35 34 65 78 80 66 63 69 40 47 55 68
54 32 28 38 61 74 62 49 32 39 33 29 24 19 18 22 40 45 44 38 24 25 74 91 77 74 86 87 68 76 78 76
70 46 46 30 53 56 83 96 91 88 94 71 50 36 34 29 26 24 36 36 52 57 36 64 81 88 92 97 91 97 90 87
74 62 62 34 35 57 53 75 98 98 97 82 78 61 61 58 58 65 57 72 73 90 94 90 98 95 96 99 94 81 68 64
63 56 39 48 38 39 37 39 69 95 97 95 90 57 57 55 49 60 66 63 70 98 99 97 96 98 96 98 97 77 75 76
74 57 54 66 66 35 32 35 43 80 97 96 82 61 60 58 46 42 49 61 91 97 97 98 98 91 97 99 88 82 82 81
83 67 56 77 67 43 35 19 15 16 26 23 29 36 29 40 62 90 94 97 98 91 72 63 83 78 89 93 75 79 87 76
86 56 57 52 56 34 34 18 13 7 5 6 7 8 13 47 62 61 72 79 85 74 45 74 71 58 61 68 72 47 33 28
83 66 48 60 68 59 25 16 12 8 6 7 8 21 36 44 45 44 60 51 34 53 58 51 37 38 43 54 45 45 24 41
63 44 38 50 47 47 28 19 10 11 17 19 22 36 46 46 44 42 41 24 47 36 35 26 34 58 67 49 39 29 76 94
60 50 30 42 35 39 33 29 14 14 21 37 46 46 45 31 42 39 21 20 14 11 11 15 24 48 56 64 43 76 56 50

GFSFLT1_500_rhum_090.txt.gz
RH
42 55 50 34 19 24 30 31 36 54 90 83 80 66 86 99 100 98 98 97 98 91 97 97 96 95 99 96 99 100 95 56
37 35 77 36 22 28 37 37 47 53 61 81 89 97 77 61 84 96 96 96 94 97 94 96 99 99 98 93 90 70 65 62
20 25 90 86 39 33 57 52 44 55 70 65 97 86 96 85 94 98 96 96 91 97 97 99 97 88 97 87 65 63 63 69
24 16 29 89 86 65 71 74 73 64 68 68 61 69 85 84 78 86 100 95 96 97 100 96 68 74 74 58 54 72 75 64
30 30 17 22 57 82 76 65 69 68 67 64 67 71 79 100 99 99 90 98 96 99 95 80 64 60 54 74 85 84 98 68
31 32 33 23 28 24 27 33 27 28 53 73 75 75 87 86 74 75 77 74 70 74 84 81 86 92 92 95 99 98 94 90
36 38 44 46 35 31 34 37 32 27 24 22 23 42 56 63 67 66 65 67 79 82 86 91 95 96 99 96 95 92 93 90
22 26 28 38 49 44 37 31 31 30 33 36 34 32 30 27 27 28 33 39 43 41 39 40 62 92 83 71 69 78 96 100
23 21 24 32 43 45 33 30 25 25 26 25 25 24 25 29 38 49 60 56 45 44 42 50 53 64 70 61 66 88 100 93
32 42 21 28 41 47 51 51 33 24 27 24 21 19 18 18 18 33 47 49 42 37 33 23 48 68 75 67 58 58 82 91
53 68 38 52 48 44 58 71 70 51 44 48 53 40 32 30 30 29 26 23 24 32 41 50 58 62 89 90 86 92 96 98
61 50 64 45 54 39 56 70 82 90 97 93 84 67 58 53 57 56 54 48 66 73 67 75 80 87 94 95 97 99 98 98
64 46 62 60 38 43 31 51 57 67 79 99 98 86 59 53 56 62 56 59 63 74 80 96 98 100 99 98 95 97 98 97
47 55 79 62 71 75 50 33 35 37 57 85 96 98 95 78 72 72 61 51 81 94 91 98 97 89 95 97 98 98 99 99
44 92 82 62 76 100 60 41 33 32 24 31 31 28 29 48 70 48 47 72 92 99 99 97 98 75 46 62 70 71 65 69
98 90 84 69 52 69 76 69 38 19 14 12 7 6 6 8 10 30 62 81 77 76 80 78 64 90 84 60 66 47 46 65
99 91 87 77 48 56 63 74 64 32 17 12 6 7 7 11 23 42 57 61 61 71 74 76 47 54 74 91 62 52 56 79
66 88 88 52 47 48 62 63 52 43 21 14 10 8 23 46 45 43 56 62 51 50 57 26 32 21 17 24 20 46 66 85
98 81 53 34 49 46 42 32 32 31 29 22 12 19 42 43 44 46 45 40 44 35 23 20 22 25 21 19 31 32 79 96

GFSFLT1_500_rhum_093.txt.gz
RH
28 38 60 40 20 16 39 32 37 96 91 97 97 97 96 96 96 96 95 93 98 91 98 97 95 89 96 95 94 89 96 97
24 27 75 52 20 17 40 42 34 72 98 84 88 89 94 92 96 98 97 96 97 97 97 94 96 96 97 94 95 98 97 98
26 16 36 77 22 17 31 65 93 66 86 98 98 99 98 97 97 97 98 97 96 91 92 97 95 96 97 96 99 98 95 99
29 24 18 48 70 46 55 58 64 77 71 80 92 96 92 93 81 72 91 97 97 96 96 97 97 97 96 97 98 94 89 96
38 28 20 27 41 80 74 72 78 77 82 87 72 78 98 98 97 91 96 99 96 95 98 97 97 96 92 96 82 76 68 70
35 31 30 24 30 27 56 54 46 69 65 66 71 82 97 100 100 97 88 94 97 98 98 95 95 73 62 57 57 60 80 85
35 33 34 35 32 26 32 31 26 27 23 42 60 68 78 88 93 97 93 82 73 69 81 80 68 72 78 82 81 96 97 98
28 22 20 24 32 32 27 31 35 37 31 26 23 26 37 58 72 76 77 77 72 68 66 70 79 86 97 94 98 98 90 96
31 28 22 16 25 32 33 33 28 27 28 28 32 34 34 32 30 29 31 33 38 42 48 49 50 48 50 63 84 87 66 60
46 57 34 46 19 33 39 41 29 22 21 22 22 22 21 20 17 18 23 32 42 38 33 31 34 27 27 36 46 53 65 77
78 69 54 53 35 48 39 43 58 46 31 32 33 32 27 24 22 21 23 27 30 30 28 34 36 45 52 55 62 74 85 93
71 79 62 59 54 53 48 49 70 74 78 76 70 76 77 65 46 42 42 40 46 48 49 60 66 67 72 88 94 96 96 99
75 84 70 58 46 56 53 40 38 81 92 78 74 88 100 97 75 58 57 63 60 54 48 46 56 90 81 92 96 99 99 99
87 82 68 60 76 70 60 56 45 39 49 52 70 82 96 99 96 68 60 66 71 62 55 68 90 94 95 97 96 71 64 82
86 73 66 86 92 77 58 61 52 38 33 34 32 41 58 48 78 89 90 80 56 46 79 82 88 91 96 97 82 85 81 57
95 77 69 100 95 82 72 69 66 45 36 31 19 14 13 7 6 11 12 12 34 57 82 94 89 89 92 87 81 56 51 50
74 74 79 95 100 98 61 63 67 71 58 37 20 15 12 7 6 8 11 32 47 52 61 72 74 68 61 71 29 25 37 30
100 74 70 82 91 80 58 56 54 58 56 60 49 28 16 13 9 34 54 64 60 58 57 62 54 44 46 35 28 31 49 26
86 72 93 95 80 76 48 58 56 54 46 43 40 40 35 26 23 23 52 72 60 50 49 47 44 38 24 24 28 30 34 37